| time (UTC) | temp C | wind direction | speed KPH | gust KPH | rain 1hr cm | rain 24hr cm | rain mn cm | humidity % | barometer mb |
| 20260906011846 | 28 | 213 | 1.6 | 6.4 | 0.00 | 0.00 | 0.00 | 80 | 1011.5 |
| 20260906011346 | 28 | 199 | 0.0 | 4.8 | 0.00 | 0.00 | 0.00 | 81 | 1011.6 |
| 20260906010847 | 28 | 214 | 0.0 | 4.8 | 0.00 | 0.00 | 0.00 | 81 | 1011.5 |
| 20260906010843 | 28 | 175 | 0.0 | 4.8 | 0.00 | 0.00 | 0.00 | 81 | 1011.6 |
| 20260906005841 | 28 | 217 | 0.0 | 3.2 | 0.00 | 0.00 | 0.00 | 81 | 1011.6 |
| 20260906005342 | 28 | 206 | 0.0 | 3.2 | 0.00 | 0.00 | 0.00 | 81 | 1011.6 |
| 20260906004841 | 28 | 207 | 0.0 | 6.4 | 0.00 | 0.00 | 0.00 | 82 | 1011.5 |
| 20260906004837 | 28 | 213 | 0.0 | 4.8 | 0.00 | 0.00 | 0.00 | 82 | 1011.6 |
| 20260906003837 | 28 | 236 | 0.0 | 6.4 | 0.00 | 0.00 | 0.00 | 82 | 1011.5 |
| 20260906003605 | 28 | 227 | 0.0 | 3.2 | 0.00 | 0.00 | 0.00 | 83 | 1011.5 |
| 20260906003104 | 28 | 212 | 0.0 | 1.6 | 0.00 | 0.00 | 0.00 | 83 | 1011.5 |
| 20260906002333 | 28 | 212 | 0.0 | 1.6 | 0.00 | 0.00 | 0.00 | 83 | 1011.5 |
| 20260906001834 | 28 | 212 | 0.0 | 1.6 | 0.00 | 0.00 | 0.00 | 82 | 1011.4 |
| 20260906001333 | 28 | 212 | 0.0 | 1.6 | 0.00 | 0.00 | 0.00 | 82 | 1011.3 |
| 20260906000833 | 28 | 226 | 0.0 | 1.6 | 0.00 | 0.00 | 0.00 | 82 | 1011.4 |
| 20260906000334 | 28 | 226 | 0.0 | 3.2 | 0.00 | 0.00 | 0.00 | 81 | 1011.6 |
| 20260905235833 | 28 | 226 | 0.0 | 3.2 | 0.00 | 0.00 | 0.00 | 81 | 1011.7 |
| 20260905235333 | 28 | 227 | 0.0 | 1.6 | 0.00 | 0.00 | 0.00 | 81 | 1011.7 |
| 20260905235103 | 28 | 227 | 0.0 | 1.6 | 0.00 | 0.00 | 0.00 | 81 | 1011.6 |
| 20260905234935 | 29 | 227 | 0.0 | 1.6 | 0.00 | 0.00 | 0.00 | 80 | 1011.6 |
| 20260905233829 | 29 | 227 | 0.0 | 1.6 | 0.00 | 0.00 | 0.00 | 78 | 1011.5 |
| 20260905233328 | 29 | 226 | 0.0 | 1.6 | 0.00 | 0.00 | 0.00 | 78 | 1011.4 |
| 20260905233058 | 29 | 222 | 0.0 | 1.6 | 0.00 | 0.00 | 0.00 | 78 | 1011.4 |
| 20260905232324 | 30 | 259 | 0.0 | 3.2 | 0.00 | 0.00 | 0.00 | 77 | 1011.4 |
| 20260905231823 | 30 | 259 | 0.0 | 4.8 | 0.00 | 0.00 | 0.00 | 77 | 1011.3 |
| 20260905231321 | 30 | 245 | 0.0 | 4.8 | 0.00 | 0.00 | 0.00 | 78 | 1011.3 |
| 20260905230822 | 30 | 203 | 0.0 | 1.6 | 0.00 | 0.00 | 0.00 | 78 | 1011.3 |
| 20260905230317 | 30 | 203 | 0.0 | 1.6 | 0.00 | 0.00 | 0.00 | 77 | 1011.3 |
| 20260905225818 | 30 | 224 | 0.0 | 3.2 | 0.00 | 0.00 | 0.00 | 77 | 1011.2 |
| 20260905225315 | 30 | 224 | 0.0 | 3.2 | 0.00 | 0.00 | 0.00 | 76 | 1011.2 |
| 20260905224815 | 30 | 285 | 0.0 | 4.8 | 0.00 | 0.00 | 0.00 | 76 | 1011.2 |
| 20260905224316 | 30 | 227 | 0.0 | 4.8 | 0.00 | 0.00 | 0.00 | 75 | 1011.2 |
| 20260905223816 | 30 | 258 | 0.0 | 3.2 | 0.00 | 0.00 | 0.00 | 75 | 1011.3 |
| 20260905223315 | 30 | 259 | 0.0 | 3.2 | 0.00 | 0.00 | 0.00 | 74 | 1011.5 |
| 20260905222816 | 31 | 215 | 0.0 | 4.8 | 0.00 | 0.00 | 0.00 | 74 | 1011.4 |
| 20260905222315 | 31 | 213 | 0.0 | 4.8 | 0.00 | 0.00 | 0.00 | 73 | 1011.5 |
| 20260905221815 | 31 | 268 | 0.0 | 3.2 | 0.00 | 0.00 | 0.00 | 72 | 1011.6 |
| 20260905221316 | 31 | 235 | 1.6 | 4.8 | 0.00 | 0.00 | 0.00 | 72 | 1011.7 |
| 20260905221046 | 31 | 218 | 1.6 | 6.4 | 0.00 | 0.00 | 0.00 | 72 | 1011.7 |
| 20260905220316 | 31 | 218 | 1.6 | 6.4 | 0.00 | 0.00 | 0.00 | 69 | 1011.8 |
| 20260905215815 | 31 | 220 | 1.6 | 6.4 | 0.00 | 0.00 | 0.00 | 69 | 1011.8 |
| 20260905215315 | 32 | 228 | 1.6 | 6.4 | 0.00 | 0.00 | 0.00 | 70 | 1011.8 |
| 20260905214814 | 32 | 225 | 1.6 | 6.4 | 0.00 | 0.00 | 0.00 | 69 | 1011.8 |
| 20260905214544 | 32 | 205 | 1.6 | 6.4 | 0.00 | 0.00 | 0.00 | 70 | 1011.7 |
| 20260905213813 | 32 | 203 | 1.6 | 6.4 | 0.00 | 0.00 | 0.00 | 70 | 1011.7 |
| 20260905213314 | 31 | 207 | 1.6 | 4.8 | 0.00 | 0.00 | 0.00 | 73 | 1011.8 |
| 20260905213044 | 31 | 202 | 1.6 | 4.8 | 0.00 | 0.00 | 0.00 | 72 | 1011.8 |
| 20260905212310 | 31 | 206 | 1.6 | 4.8 | 0.00 | 0.00 | 0.00 | 74 | 1011.9 |
| 20260905212040 | 31 | 212 | 1.6 | 6.4 | 0.00 | 0.00 | 0.00 | 75 | 1012.0 |
| 20260905211310 | 30 | 211 | 1.6 | 6.4 | 0.00 | 0.10 | 0.00 | 75 | 1012.3 |
| 20260905210809 | 30 | 203 | 1.6 | 4.8 | 0.00 | 0.33 | 0.00 | 77 | 1012.3 |
| 20260905210310 | 30 | 78 | 1.6 | 4.8 | 0.00 | 0.46 | 0.00 | 77 | 1012.3 |
| 20260905205809 | 30 | 139 | 1.6 | 4.8 | 0.00 | 0.58 | 0.00 | 78 | 1012.0 |
| 20260905205308 | 30 | 96 | 1.6 | 4.8 | 0.00 | 0.71 | 0.00 | 77 | 1011.9 |
| 20260905204808 | 30 | 191 | 1.6 | 6.4 | 0.00 | 0.74 | 0.00 | 77 | 1011.9 |
| 20260905204538 | 30 | 198 | 1.6 | 6.4 | 0.00 | 0.74 | 0.00 | 76 | 1011.8 |
| 20260905203807 | 31 | 101 | 1.6 | 4.8 | 0.00 | 0.74 | 0.00 | 76 | 1011.8 |
| 20260905203308 | 31 | 212 | 0.0 | 4.8 | 0.00 | 0.76 | 0.00 | 76 | 1011.9 |
| 20260905203038 | 30 | 207 | 0.0 | 3.2 | 0.00 | 0.76 | 0.00 | 75 | 1012.0 |
| 20260905202307 | 30 | 243 | 0.0 | 1.6 | 0.00 | 0.76 | 0.00 | 76 | 1012.0 |
| 20260905201807 | 30 | 243 | 0.0 | 1.6 | 0.00 | 0.76 | 0.00 | 77 | 1012.0 |
| 20260905201543 | 30 | 243 | 1.6 | 4.8 | 0.00 | 0.76 | 0.00 | 79 | 1012.2 |
| 20260905201307 | 30 | 243 | 0.0 | 3.2 | 0.00 | 0.76 | 0.00 | 79 | 1012.2 |
| 20260905200912 | 30 | 74 | 1.6 | 4.8 | 0.00 | 0.76 | 0.00 | 79 | 1012.2 |
| 20260905195807 | 30 | 328 | 1.6 | 4.8 | 0.00 | 0.76 | 0.00 | 80 | 1012.2 |
| 20260905195308 | 30 | 77 | 1.6 | 4.8 | 0.00 | 0.76 | 0.00 | 79 | 1012.3 |
| 20260905194805 | 30 | 34 | 1.6 | 4.8 | 0.00 | 0.76 | 0.00 | 77 | 1012.5 |
| 20260905194537 | 30 | 11 | 0.0 | 3.2 | 0.00 | 0.76 | 0.00 | 75 | 1012.6 |
| 20260905193805 | 31 | 321 | 0.0 | 1.6 | 0.00 | 0.76 | 0.00 | 76 | 1012.6 |
| 20260905193305 | 30 | 332 | 0.0 | 3.2 | 0.00 | 0.76 | 0.00 | 75 | 1012.7 |
| 20260905192805 | 30 | 352 | 0.0 | 4.8 | 0.00 | 0.76 | 0.00 | 74 | 1012.8 |
| 20260905192306 | 30 | 2 | 1.6 | 6.4 | 0.00 | 0.76 | 0.00 | 75 | 1013.0 |
| 20260905191805 | 30 | 173 | 1.6 | 6.4 | 0.00 | 0.76 | 0.00 | 76 | 1012.9 |
| 20260905191304 | 30 | 327 | 0.0 | 4.8 | 0.00 | 0.76 | 0.00 | 77 | 1012.8 |
| 20260905191034 | 30 | 269 | 1.6 | 8.0 | 0.00 | 0.76 | 0.00 | 77 | 1013.0 |
| 20260905190531 | 31 | 278 | 1.6 | 8.0 | 0.00 | 0.76 | 0.00 | 73 | 1013.0 |
| 20260905190030 | 31 | 323 | 1.6 | 4.8 | 0.00 | 0.76 | 0.00 | 71 | 1013.1 |
| 20260905185529 | 32 | 64 | 1.6 | 4.8 | 0.00 | 0.76 | 0.00 | 69 | 1013.1 |
| 20260905184759 | 32 | 227 | 1.6 | 4.8 | 0.00 | 0.76 | 0.00 | 66 | 1013.2 |
| 20260905184300 | 32 | 195 | 1.6 | 4.8 | 0.00 | 0.76 | 0.00 | 71 | 1013.1 |
| 20260905183803 | 32 | 75 | 1.6 | 8.0 | 0.00 | 0.76 | 0.00 | 70 | 1013.3 |
| 20260905183759 | 32 | 65 | 1.6 | 4.8 | 0.00 | 0.76 | 0.00 | 68 | 1013.2 |
| 20260905182800 | 32 | 316 | 3.2 | 8.0 | 0.00 | 0.76 | 0.00 | 70 | 1013.4 |
| 20260905182259 | 31 | 113 | 3.2 | 9.7 | 0.00 | 0.76 | 0.00 | 71 | 1013.4 |
| 20260905181758 | 31 | 85 | 3.2 | 9.7 | 0.00 | 0.76 | 0.00 | 69 | 1013.4 |
| 20260905181259 | 32 | 101 | 3.2 | 9.7 | 0.00 | 0.76 | 0.00 | 69 | 1013.5 |
| 20260905180800 | 32 | 61 | 1.6 | 6.4 | 0.00 | 0.76 | 0.00 | 67 | 1013.5 |
| 20260905180259 | 32 | 186 | 0.0 | 4.8 | 0.00 | 0.76 | 0.00 | 67 | 1013.5 |
| 20260905175759 | 31 | 218 | 0.0 | 4.8 | 0.00 | 0.76 | 0.00 | 71 | 1013.6 |
| 20260905175257 | 31 | 278 | 0.0 | 1.6 | 0.00 | 0.79 | 0.00 | 76 | 1013.7 |
| 20260905174757 | 30 | 282 | 0.0 | 1.6 | 0.00 | 0.81 | 0.00 | 77 | 1013.7 |
| 20260905174529 | 30 | 292 | 0.0 | 1.6 | 0.00 | 0.84 | 0.00 | 77 | 1013.8 |
| 20260905173757 | 30 | 292 | 0.0 | 1.6 | 0.00 | 0.86 | 0.00 | 75 | 1013.8 |
| 20260905173257 | 30 | 292 | 0.0 | 3.2 | 0.00 | 0.89 | 0.00 | 79 | 1013.8 |
| 20260905172756 | 30 | 292 | 0.0 | 4.8 | 0.00 | 0.89 | 0.00 | 78 | 1013.8 |
| 20260905172255 | 30 | 291 | 0.0 | 4.8 | 0.00 | 0.89 | 0.00 | 78 | 1013.8 |
| 20260905171755 | 31 | 293 | 0.0 | 4.8 | 0.00 | 0.89 | 0.00 | 75 | 1013.9 |
| 20260905171255 | 31 | 268 | 0.0 | 6.4 | 0.00 | 0.89 | 0.00 | 73 | 1014.0 |
| 20260905170755 | 31 | 231 | 1.6 | 6.4 | 0.00 | 0.89 | 0.00 | 74 | 1014.0 |
| 20260905170525 | 31 | 34 | 1.6 | 4.8 | 0.00 | 0.89 | 0.00 | 72 | 1014.0 |
| 20260905165756 | 31 | 68 | 1.6 | 4.8 | 0.00 | 0.89 | 0.00 | 72 | 1014.0 |
| 20260905165255 | 31 | 342 | 1.6 | 6.4 | 0.00 | 0.89 | 0.00 | 72 | 1014.1 |
| 20260905164755 | 31 | 25 | 3.2 | 8.0 | 0.00 | 0.89 | 0.00 | 72 | 1014.0 |
| 20260905164253 | 31 | 307 | 1.6 | 8.0 | 0.00 | 0.89 | 0.00 | 70 | 1014.1 |
| 20260905163751 | 32 | 335 | 1.6 | 6.4 | 0.00 | 0.89 | 0.00 | 68 | 1014.2 |
| 20260905163251 | 32 | 104 | 1.6 | 4.8 | 0.00 | 0.89 | 0.00 | 68 | 1014.2 |
| 20260905162749 | 32 | 68 | 1.6 | 4.8 | 0.00 | 0.89 | 0.00 | 67 | 1014.2 |
| 20260905162521 | 31 | 98 | 1.6 | 4.8 | 0.00 | 0.89 | 0.00 | 68 | 1014.2 |
| 20260905161749 | 31 | 56 | 1.6 | 4.8 | 0.00 | 0.89 | 0.00 | 70 | 1014.2 |
| 20260905161249 | 31 | 349 | 1.6 | 6.4 | 0.00 | 0.89 | 0.00 | 75 | 1014.2 |
| 20260905160749 | 31 | 18 | 1.6 | 6.4 | 0.00 | 0.89 | 0.00 | 74 | 1014.2 |
| 20260905160249 | 30 | 35 | 0.0 | 3.2 | 0.00 | 0.89 | 0.00 | 75 | 1014.2 |
| 20260905155750 | 30 | 209 | 1.6 | 4.8 | 0.00 | 0.89 | 0.00 | 74 | 1014.2 |
| 20260905155249 | 31 | 209 | 1.6 | 4.8 | 0.00 | 0.89 | 0.00 | 71 | 1014.3 |
| 20260905154747 | 31 | 307 | 1.6 | 3.2 | 0.00 | 0.89 | 0.00 | 72 | 1014.4 |
| 20260905154247 | 31 | 2 | 1.6 | 3.2 | 0.00 | 0.89 | 0.00 | 72 | 1014.4 |
| 20260905153747 | 31 | 42 | 1.6 | 6.4 | 0.00 | 0.89 | 0.00 | 76 | 1014.3 |
| 20260905153248 | 30 | 94 | 1.6 | 6.4 | 0.00 | 0.89 | 0.00 | 75 | 1014.3 |
| 20260905153018 | 30 | 119 | 0.0 | 3.2 | 0.00 | 0.89 | 0.00 | 81 | 1014.3 |
| 20260905152247 | 30 | 259 | 0.0 | 1.6 | 0.00 | 0.89 | 0.00 | 81 | 1014.4 |
| 20260905151748 | 29 | 263 | 0.0 | 1.6 | 0.00 | 0.89 | 0.00 | 82 | 1014.4 |
| 20260905151517 | 29 | 262 | 0.0 | 0.0 | 0.00 | 0.89 | 0.00 | 82 | 1014.5 |
| 20260905150747 | 30 | 262 | 0.0 | 1.6 | 0.00 | 0.89 | 0.00 | 81 | 1014.5 |
| 20260905150247 | 30 | 262 | 0.0 | 1.6 | 0.00 | 0.89 | 0.00 | 81 | 1014.3 |
| 20260905145746 | 30 | 262 | 0.0 | 3.2 | 0.00 | 0.89 | 0.00 | 79 | 1014.4 |
| 20260905145515 | 30 | 262 | 0.0 | 3.2 | 0.00 | 0.89 | 0.00 | 78 | 1014.4 |
| 20260905144745 | 30 | 282 | 1.6 | 3.2 | 0.00 | 0.89 | 0.00 | 77 | 1014.2 |
| 20260905144245 | 30 | 283 | 1.6 | 3.2 | 0.00 | 0.89 | 0.00 | 77 | 1014.3 |
| 20260905143750 | 30 | 326 | 0.0 | 3.2 | 0.00 | 0.89 | 0.00 | 78 | 1014.2 |
| 20260905143746 | 30 | 75 | 1.6 | 3.2 | 0.00 | 0.89 | 0.00 | 77 | 1014.2 |
| 20260905142745 | 30 | 229 | 0.0 | 3.2 | 0.00 | 0.89 | 0.00 | 80 | 1014.3 |
| 20260905142515 | 30 | 329 | 0.0 | 1.6 | 0.00 | 0.89 | 0.00 | 80 | 1014.3 |
| 20260905141745 | 30 | 329 | 0.0 | 1.6 | 0.00 | 0.89 | 0.00 | 79 | 1014.3 |
| 20260905141246 | 30 | 330 | 0.0 | 1.6 | 0.00 | 0.89 | 0.00 | 79 | 1014.3 |
| 20260905140744 | 30 | 330 | 1.6 | 3.2 | 0.00 | 0.89 | 0.00 | 81 | 1014.3 |
| 20260905140243 | 29 | 330 | 1.6 | 3.2 | 0.00 | 0.89 | 0.00 | 81 | 1014.3 |
| 20260905135743 | 29 | 69 | 1.6 | 4.8 | 0.00 | 0.89 | 0.00 | 83 | 1014.3 |
| 20260905135243 | 29 | 72 | 1.6 | 4.8 | 0.00 | 0.89 | 0.00 | 83 | 1014.3 |
| 20260905134743 | 28 | 51 | 1.6 | 3.2 | 0.00 | 0.89 | 0.00 | 84 | 1014.2 |
| 20260905134243 | 28 | 51 | 1.6 | 3.2 | 0.00 | 0.89 | 0.00 | 84 | 1014.2 |
| 20260905133743 | 28 | 78 | 1.6 | 3.2 | 0.00 | 0.89 | 0.00 | 85 | 1014.1 |
| 20260905133243 | 28 | 29 | 1.6 | 3.2 | 0.00 | 0.89 | 0.00 | 85 | 1014.1 |
| 20260905132743 | 28 | 78 | 0.0 | 3.2 | 0.00 | 0.89 | 0.00 | 86 | 1014.1 |
| 20260905132243 | 28 | 99 | 0.0 | 3.2 | 0.00 | 0.89 | 0.00 | 88 | 1014.1 |
| 20260905131741 | 27 | 99 | 0.0 | 3.2 | 0.00 | 0.89 | 0.00 | 89 | 1014.1 |
| 20260905131241 | 27 | 79 | 0.0 | 3.2 | 0.00 | 0.89 | 0.00 | 89 | 1014.1 |
| 20260905130741 | 27 | 68 | 0.0 | 0.0 | 0.00 | 0.89 | 0.00 | 90 | 1014.1 |
| 20260905130241 | 27 | 68 | 0.0 | 0.0 | 0.00 | 0.89 | 0.00 | 91 | 1014.0 |
| 20260905125741 | 27 | 68 | 0.0 | 3.2 | 0.00 | 0.89 | 0.00 | 92 | 1014.0 |
| 20260905125241 | 26 | 68 | 0.0 | 3.2 | 0.00 | 0.89 | 0.00 | 94 | 1014.0 |
| 20260905124741 | 26 | 68 | 0.0 | 3.2 | 0.00 | 0.89 | 0.00 | 95 | 1013.9 |
| 20260905124241 | 26 | 68 | 0.0 | 1.6 | 0.00 | 0.89 | 0.00 | 95 | 1013.9 |
| 20260905124012 | 26 | 68 | 0.0 | 1.6 | 0.00 | 0.89 | 0.00 | 95 | 1013.8 |
| 20260905123239 | 25 | 68 | 0.0 | 0.0 | 0.00 | 0.89 | 0.00 | 95 | 1013.8 |
| 20260905122740 | 25 | 68 | 0.0 | 0.0 | 0.00 | 0.89 | 0.00 | 95 | 1013.8 |
| 20260905122239 | 26 | 68 | 0.0 | 0.0 | 0.00 | 0.89 | 0.00 | 96 | 1013.8 |
| 20260905121739 | 25 | 68 | 0.0 | 0.0 | 0.00 | 0.89 | 0.00 | 96 | 1013.7 |
| 20260905121239 | 25 | 68 | 0.0 | 0.0 | 0.00 | 0.89 | 0.00 | 96 | 1013.7 |
| 20260905120739 | 24 | 68 | 0.0 | 1.6 | 0.00 | 0.89 | 0.00 | 96 | 1013.7 |
| 20260905120239 | 24 | 68 | 0.0 | 1.6 | 0.00 | 0.89 | 0.00 | 96 | 1013.6 |
| 20260905120011 | 24 | 68 | 0.0 | 0.0 | 0.00 | 0.89 | 0.00 | 96 | 1013.6 |
| 20260905115239 | 23 | 68 | 0.0 | 0.0 | 0.00 | 0.89 | 0.00 | 96 | 1013.6 |
| 20260905114739 | 23 | 68 | 0.0 | 0.0 | 0.00 | 0.89 | 0.00 | 96 | 1013.5 |
| 20260905114237 | 23 | 68 | 0.0 | 1.6 | 0.00 | 0.89 | 0.00 | 96 | 1013.6 |
| 20260905113737 | 23 | 68 | 0.0 | 1.6 | 0.00 | 0.89 | 0.00 | 96 | 1013.5 |
| 20260905113508 | 23 | 68 | 0.0 | 1.6 | 0.00 | 0.89 | 0.00 | 96 | 1013.4 |
| 20260905112737 | 23 | 68 | 0.0 | 0.0 | 0.00 | 0.89 | 0.00 | 96 | 1013.4 |
| 20260905112237 | 24 | 68 | 0.0 | 1.6 | 0.00 | 0.89 | 0.00 | 96 | 1013.3 |
| 20260905112007 | 24 | 68 | 0.0 | 1.6 | 0.00 | 0.89 | 0.00 | 96 | 1013.3 |
| 20260905111237 | 24 | 68 | 0.0 | 1.6 | 0.00 | 0.89 | 0.00 | 96 | 1013.2 |
| 20260905110737 | 24 | 68 | 0.0 | 1.6 | 0.00 | 0.89 | 0.00 | 96 | 1013.2 |
| 20260905110237 | 24 | 68 | 0.0 | 1.6 | 0.00 | 0.89 | 0.00 | 96 | 1013.2 |
| 20260905105735 | 24 | 68 | 0.0 | 1.6 | 0.00 | 0.89 | 0.00 | 96 | 1013.1 |
| 20260905105235 | 24 | 68 | 0.0 | 1.6 | 0.00 | 0.89 | 0.00 | 96 | 1013.2 |
| 20260905105006 | 23 | 68 | 0.0 | 1.6 | 0.00 | 0.89 | 0.00 | 96 | 1013.3 |
| 20260905104235 | 23 | 68 | 0.0 | 1.6 | 0.00 | 0.89 | 0.00 | 96 | 1013.3 |
| 20260905103735 | 23 | 68 | 0.0 | 1.6 | 0.00 | 0.89 | 0.00 | 96 | 1013.3 |
| 20260905103235 | 23 | 68 | 0.0 | 1.6 | 0.00 | 0.89 | 0.00 | 96 | 1013.3 |
| 20260905102735 | 23 | 68 | 0.0 | 1.6 | 0.00 | 0.89 | 0.00 | 96 | 1013.2 |
| 20260905102239 | 23 | 68 | 1.6 | 3.2 | 0.00 | 0.89 | 0.00 | 96 | 1013.2 |
| 20260905102235 | 23 | 68 | 0.0 | 3.2 | 0.00 | 0.89 | 0.00 | 96 | 1013.2 |
| 20260905101235 | 23 | 77 | 0.0 | 3.2 | 0.00 | 0.89 | 0.00 | 96 | 1013.3 |
| 20260905100732 | 23 | 77 | 0.0 | 0.0 | 0.00 | 0.89 | 0.00 | 96 | 1013.3 |
| 20260905100233 | 23 | 77 | 0.0 | 1.6 | 0.00 | 0.89 | 0.00 | 96 | 1013.2 |
| 20260905095738 | 23 | 77 | 0.0 | 1.6 | 0.00 | 0.89 | 0.00 | 96 | 1013.2 |
| 20260905095232 | 23 | 77 | 0.0 | 1.6 | 0.00 | 0.89 | 0.00 | 96 | 1013.2 |
| 20260905094733 | 23 | 77 | 0.0 | 1.6 | 0.00 | 0.89 | 0.00 | 96 | 1013.1 |
| 20260905094233 | 23 | 77 | 0.0 | 0.0 | 0.00 | 0.89 | 0.00 | 96 | 1013.1 |
| 20260905093733 | 23 | 77 | 0.0 | 0.0 | 0.00 | 0.89 | 0.00 | 96 | 1013.1 |
| 20260905093233 | 23 | 77 | 0.0 | 1.6 | 0.00 | 0.89 | 0.00 | 96 | 1013.1 |
| 20260905093002 | 23 | 77 | 0.0 | 1.6 | 0.00 | 0.89 | 0.00 | 96 | 1013.0 |
| 20260905092231 | 23 | 77 | 0.0 | 1.6 | 0.00 | 0.89 | 0.00 | 96 | 1013.1 |
| 20260905091731 | 23 | 77 | 0.0 | 1.6 | 0.00 | 0.89 | 0.00 | 96 | 1013.1 |
| 20260905091231 | 23 | 77 | 0.0 | 1.6 | 0.00 | 0.89 | 0.00 | 96 | 1013.1 |
| 20260905090731 | 23 | 77 | 0.0 | 1.6 | 0.00 | 0.89 | 0.00 | 96 | 1013.1 |
| 20260905090232 | 23 | 77 | 1.6 | 1.6 | 0.00 | 0.89 | 0.00 | 96 | 1013.2 |
| 20260905085731 | 23 | 77 | 1.6 | 1.6 | 0.00 | 0.89 | 0.00 | 96 | 1013.1 |
| 20260905085230 | 23 | 77 | 1.6 | 3.2 | 0.00 | 0.89 | 0.00 | 96 | 1013.0 |
| 20260905084731 | 23 | 77 | 0.0 | 3.2 | 0.00 | 0.89 | 0.00 | 96 | 1013.0 |
| 20260905084501 | 23 | 75 | 0.0 | 0.0 | 0.00 | 0.89 | 0.00 | 96 | 1013.1 |
| 20260905083729 | 23 | 75 | 0.0 | 0.0 | 0.00 | 0.89 | 0.00 | 96 | 1013.1 |
| 20260905083229 | 23 | 75 | 0.0 | 0.0 | 0.00 | 0.89 | 0.00 | 96 | 1013.0 |
| 20260905082728 | 23 | 75 | 0.0 | 0.0 | 0.00 | 0.89 | 0.00 | 96 | 1013.0 |
| 20260905082229 | 23 | 75 | 0.0 | 0.0 | 0.00 | 0.89 | 0.00 | 96 | 1012.9 |
| 20260905081729 | 23 | 75 | 0.0 | 0.0 | 0.00 | 0.89 | 0.00 | 96 | 1012.9 |
| 20260905081229 | 23 | 75 | 0.0 | 0.0 | 0.00 | 0.89 | 0.00 | 96 | 1012.8 |
| 20260905080729 | 23 | 75 | 0.0 | 0.0 | 0.00 | 0.89 | 0.00 | 96 | 1012.7 |
| 20260905080229 | 23 | 75 | 0.0 | 0.0 | 0.00 | 0.89 | 0.00 | 96 | 1012.7 |
| 20260905075729 | 23 | 75 | 0.0 | 0.0 | 0.00 | 0.89 | 0.00 | 96 | 1012.8 |
| 20260905075228 | 23 | 75 | 0.0 | 0.0 | 0.00 | 0.89 | 0.00 | 96 | 1012.9 |
| 20260905074957 | 23 | 75 | 0.0 | 0.0 | 0.00 | 0.89 | 0.00 | 96 | 1012.9 |
| 20260905074227 | 23 | 75 | 0.0 | 0.0 | 0.00 | 0.89 | 0.00 | 96 | 1013.0 |
| 20260905073727 | 23 | 75 | 0.0 | 0.0 | 0.00 | 0.89 | 0.00 | 96 | 1013.0 |
| 20260905073227 | 23 | 75 | 0.0 | 0.0 | 0.00 | 0.89 | 0.00 | 96 | 1013.0 |
| 20260905072727 | 23 | 75 | 0.0 | 0.0 | 0.00 | 0.89 | 0.00 | 96 | 1013.0 |
| 20260905072227 | 23 | 75 | 0.0 | 0.0 | 0.00 | 0.89 | 0.00 | 96 | 1013.0 |
| 20260905071957 | 23 | 75 | 0.0 | 0.0 | 0.00 | 0.89 | 0.00 | 96 | 1012.9 |
| 20260905071226 | 23 | 75 | 0.0 | 0.0 | 0.00 | 0.89 | 0.00 | 96 | 1012.9 |
| 20260905070725 | 23 | 75 | 0.0 | 0.0 | 0.00 | 0.89 | 0.00 | 96 | 1013.0 |
| 20260905070226 | 23 | 75 | 0.0 | 0.0 | 0.00 | 0.89 | 0.00 | 96 | 1013.0 |
| 20260905065725 | 23 | 75 | 0.0 | 0.0 | 0.00 | 0.89 | 0.00 | 96 | 1012.9 |
| 20260905065225 | 23 | 75 | 0.0 | 0.0 | 0.00 | 0.89 | 0.00 | 96 | 1012.9 |
| 20260905064725 | 23 | 75 | 0.0 | 0.0 | 0.00 | 0.89 | 0.00 | 95 | 1012.8 |
| 20260905064225 | 23 | 75 | 0.0 | 0.0 | 0.00 | 0.89 | 0.00 | 95 | 1012.8 |
| 20260905063729 | 23 | 75 | 0.0 | 0.0 | 0.00 | 0.89 | 0.00 | 95 | 1012.8 |
| 20260905063225 | 23 | 75 | 0.0 | 0.0 | 0.00 | 0.89 | 0.00 | 95 | 1012.8 |
| 20260905062725 | 23 | 75 | 0.0 | 0.0 | 0.00 | 0.89 | 0.00 | 95 | 1012.8 |
| 20260905062455 | 23 | 75 | 0.0 | 0.0 | 0.00 | 0.89 | 0.00 | 95 | 1012.8 |
| 20260905061955 | 23 | 75 | 0.0 | 0.0 | 0.00 | 0.89 | 0.00 | 95 | 1012.8 |
| 20260905061223 | 23 | 75 | 0.0 | 0.0 | 0.00 | 0.89 | 0.00 | 95 | 1012.7 |
| 20260905060724 | 23 | 75 | 0.0 | 0.0 | 0.00 | 0.89 | 0.00 | 95 | 1012.7 |
| 20260905060223 | 23 | 75 | 0.0 | 0.0 | 0.00 | 0.89 | 0.00 | 95 | 1012.8 |
| 20260905055723 | 23 | 75 | 0.0 | 0.0 | 0.00 | 0.91 | 0.00 | 95 | 1012.8 |
| 20260905055223 | 23 | 75 | 0.0 | 0.0 | 0.00 | 0.94 | 0.00 | 95 | 1012.8 |
| 20260905054954 | 23 | 75 | 0.0 | 0.0 | 0.00 | 0.99 | 0.00 | 95 | 1012.8 |
| 20260905054454 | 23 | 75 | 0.0 | 0.0 | 0.00 | 1.02 | 0.00 | 95 | 1012.8 |
| 20260905053723 | 23 | 75 | 0.0 | 0.0 | 0.00 | 1.04 | 0.00 | 95 | 1012.9 |
| 20260905053221 | 23 | 75 | 0.0 | 0.0 | 0.00 | 1.07 | 0.00 | 95 | 1013.0 |
| 20260905052721 | 23 | 75 | 0.0 | 0.0 | 0.00 | 1.09 | 0.00 | 95 | 1012.8 |
| 20260905052220 | 23 | 75 | 0.0 | 0.0 | 0.00 | 1.12 | 0.00 | 95 | 1013.0 |
| 20260905051951 | 23 | 75 | 0.0 | 0.0 | 0.00 | 1.14 | 0.00 | 95 | 1013.1 |
| 20260905051221 | 23 | 75 | 0.0 | 0.0 | 0.00 | 1.14 | 0.00 | 95 | 1013.2 |
| 20260905050721 | 23 | 75 | 0.0 | 0.0 | 0.00 | 1.17 | 0.00 | 95 | 1013.2 |
| 20260905050453 | 23 | 75 | 0.0 | 0.0 | 0.00 | 1.17 | 0.00 | 95 | 1013.3 |
| 20260905045950 | 23 | 75 | 0.0 | 0.0 | 0.00 | 1.17 | 1.17 | 95 | 1013.5 |
| 20260905045219 | 23 | 75 | 0.0 | 0.0 | 0.00 | 1.17 | 1.17 | 95 | 1013.4 |
| 20260905044717 | 23 | 75 | 0.0 | 0.0 | 0.00 | 1.17 | 1.17 | 95 | 1013.5 |
| 20260905044449 | 23 | 75 | 0.0 | 0.0 | 0.00 | 1.17 | 1.17 | 95 | 1013.5 |
| 20260905043717 | 23 | 75 | 0.0 | 0.0 | 0.00 | 1.17 | 1.17 | 95 | 1013.6 |
| 20260905043218 | 23 | 75 | 0.0 | 0.0 | 0.00 | 1.17 | 1.17 | 95 | 1013.6 |
| 20260905042948 | 23 | 75 | 0.0 | 0.0 | 0.00 | 1.17 | 1.17 | 95 | 1013.7 |
| 20260905042217 | 23 | 75 | 0.0 | 0.0 | 0.00 | 1.17 | 1.17 | 95 | 1013.8 |
| 20260905041949 | 23 | 75 | 0.0 | 0.0 | 0.00 | 1.17 | 1.17 | 95 | 1013.8 |
| 20260905041217 | 23 | 75 | 0.0 | 0.0 | 0.00 | 1.17 | 1.17 | 95 | 1013.8 |
| 20260905040717 | 23 | 75 | 0.0 | 0.0 | 0.00 | 1.17 | 1.17 | 95 | 1013.9 |
| 20260905040217 | 23 | 75 | 0.0 | 0.0 | 0.00 | 1.17 | 1.17 | 95 | 1013.9 |
| 20260905035949 | 23 | 75 | 0.0 | 0.0 | 0.00 | 1.17 | 1.17 | 95 | 1014.0 |
| 20260905035216 | 23 | 75 | 0.0 | 0.0 | 0.00 | 1.17 | 1.17 | 95 | 1014.0 |
| 20260905034716 | 24 | 75 | 0.0 | 0.0 | 0.00 | 1.17 | 1.17 | 95 | 1014.1 |
| 20260905034215 | 24 | 75 | 0.0 | 0.0 | 0.00 | 1.17 | 1.17 | 95 | 1014.1 |
| 20260905033947 | 24 | 75 | 0.0 | 1.6 | 0.00 | 1.17 | 1.17 | 95 | 1014.2 |
| 20260905033216 | 24 | 75 | 0.0 | 1.6 | 0.00 | 1.17 | 1.17 | 95 | 1014.2 |
| 20260905032715 | 24 | 75 | 0.0 | 1.6 | 0.00 | 1.17 | 1.17 | 95 | 1014.2 |
| 20260905032216 | 24 | 75 | 0.0 | 1.6 | 0.00 | 1.17 | 1.17 | 95 | 1014.2 |
| 20260905031715 | 24 | 75 | 0.0 | 3.2 | 0.00 | 1.17 | 1.17 | 94 | 1014.1 |
| 20260905031447 | 24 | 75 | 0.0 | 3.2 | 0.00 | 1.17 | 1.17 | 95 | 1014.2 |
| 20260905030715 | 24 | 75 | 0.0 | 3.2 | 0.00 | 1.17 | 1.17 | 95 | 1014.1 |
| 20260905030213 | 24 | 77 | 1.6 | 3.2 | 0.00 | 1.17 | 1.17 | 95 | 1014.1 |
| 20260905025714 | 24 | 77 | 1.6 | 3.2 | 0.00 | 1.17 | 1.17 | 95 | 1014.2 |
| 20260905025213 | 24 | 77 | 1.6 | 4.8 | 0.00 | 1.17 | 1.17 | 95 | 1014.2 |
| 20260905024714 | 24 | 63 | 1.6 | 4.8 | 0.00 | 1.17 | 1.17 | 95 | 1014.3 |
| 20260905024213 | 24 | 55 | 1.6 | 4.8 | 0.00 | 1.17 | 1.17 | 95 | 1014.3 |
| 20260905023712 | 24 | 77 | 0.0 | 4.8 | 0.00 | 1.17 | 1.17 | 95 | 1014.3 |
| 20260905023212 | 24 | 77 | 0.0 | 1.6 | 0.00 | 1.17 | 1.17 | 95 | 1014.2 |
| 20260905022714 | 24 | 77 | 0.0 | 1.6 | 0.00 | 1.17 | 1.17 | 95 | 1014.1 |
| 20260905022710 | 24 | 77 | 1.6 | 1.6 | 0.00 | 1.17 | 1.17 | 95 | 1014.0 |
| 20260905021707 | 24 | 77 | 1.6 | 3.2 | 0.00 | 1.17 | 1.17 | 95 | 1014.1 |
| 20260905021207 | 24 | 77 | 0.0 | 3.2 | 0.00 | 1.17 | 1.17 | 95 | 1014.0 |
| 20260905020707 | 24 | 77 | 0.0 | 3.2 | 0.00 | 1.17 | 1.17 | 95 | 1013.9 |
| 20260905020207 | 24 | 77 | 0.0 | 0.0 | 0.00 | 1.17 | 1.17 | 95 | 1014.0 |
| 20260905015708 | 24 | 77 | 0.0 | 0.0 | 0.00 | 1.17 | 1.17 | 95 | 1013.9 |
| 20260905015207 | 24 | 77 | 0.0 | 0.0 | 0.00 | 1.17 | 1.17 | 94 | 1013.9 |
| 20260905014707 | 24 | 77 | 0.0 | 0.0 | 0.00 | 1.17 | 1.17 | 94 | 1013.8 |
| 20260905014439 | 24 | 77 | 0.0 | 0.0 | 0.00 | 1.17 | 1.17 | 94 | 1013.8 |
| 20260905013707 | 24 | 77 | 0.0 | 0.0 | 0.00 | 1.17 | 1.17 | 94 | 1013.9 |
| 20260905013205 | 24 | 77 | 0.0 | 0.0 | 0.00 | 1.17 | 1.17 | 94 | 1013.8 |
| 20260905012703 | 24 | 77 | 0.0 | 0.0 | 0.00 | 1.17 | 1.17 | 94 | 1013.8 |
| 20260905012204 | 24 | 77 | 0.0 | 0.0 | 0.00 | 1.17 | 1.17 | 94 | 1013.8 |